GSAT0217 (GALILEO 21)

Last updated on Mon Dec 15 2025 00:02:41 GMT+0000 (Coordinated Universal Time)

1 43057U 17079C 25347.58127480 .00000025 00000+0 00000+0 0 9994 2 43057 55.1281 226.6125 0002796 346.0332 14.0404 1.70474015 49827
UTC large
Height (km)
Speed (km/s)
/
Latitude / Longitude
Inclination (degrees)
Orbital Period (minutes)
Azimuth
Elevation
Range (km)
Doppler Factor

Next 0 passes for location: London (51.5072 / 0.1276)

Sorry there are no passes over London.